User: anonymous   Login
Location: Elstree
(51.6403°N, 0.2969°W)
Time: 22:14:53
(UTC+00:00)
Language:

Tiangong - Orbit

View from above orbital plane
View from above orbital plane
View from above satellite
View from above satellite

Ground track
Ground track

The orbit data is extracted from the following two-line orbital elements,

1 48274U 21035A   23037.57287128  .00013765  00000-0  16207-3 0  9992
2 48274  41.4741 232.3134 0002905 171.9800 286.2813 15.61133623101405
Epoch (UTC): 06 February 2023 13:44:56
Eccentricity: 0.0002905
inclination: 41.4741°
perigee height: 382 km
apogee height: 386 km
right ascension of ascending node: 232.3134°
argument of perigee: 171.9800°
revolutions per day: 15.61133623
mean anomaly at epoch: 286.2813°
orbit number at epoch: 10140

The dashed part of the orbit path shows where the satellite is in the earth's shadow,  

DLR